FW9588 Weather Reports


time (UTC)temp
F
wind
direction
speed
knots
gust
knots
rain 1hr
in
rain 24hr
in
rain mn
in
humidity
%
barometer
mb
20260509080254 51 32 0.0 0.0 0.00 0.00 0.00 99 1005.7
20260509075753 51 49 0.0 0.0 0.00 0.00 0.00 99 1005.6
20260509075250 52 95 0.0 0.0 0.00 0.00 0.00 98 1005.7
20260509074747 52 27 0.0 0.0 0.00 0.00 0.00 98 1005.8
20260509074245 52 51 0.0 0.0 0.00 0.00 0.00 98 1005.7
20260509073740 52 24 0.0 0.0 0.00 0.00 0.00 98 1005.7
20260509073237 52 53 0.0 0.0 0.00 0.00 0.00 98 1005.8
20260509072733 52 49 0.0 0.0 0.00 0.00 0.00 98 1005.7
20260509072230 52 45 0.0 0.0 0.00 0.00 0.00 98 1005.9
20260509071727 52 6 0.0 0.0 0.00 0.00 0.00 98 1006.0
20260509071224 52 357 0.0 0.0 0.00 0.00 0.00 97 1005.7
20260509070721 52 59 0.0 0.0 0.00 0.00 0.00 97 1005.9
20260509070218 52 48 0.0 0.0 0.00 0.00 0.00 97 1006.1
20260509065714 52 9 0.0 0.0 0.00 0.00 0.00 97 1005.9
20260509065210 52 56 0.0 0.0 0.00 0.00 0.00 97 1005.9
20260509064707 52 44 0.0 0.0 0.00 0.00 0.00 96 1006.3
20260509064205 52 51 0.0 0.0 0.00 0.00 0.00 96 1006.0
20260509063702 52 43 0.0 0.0 0.00 0.00 0.00 96 1006.1
20260509063158 52 61 0.0 0.0 0.00 0.00 0.00 96 1005.9
20260509062655 52 71 0.0 0.0 0.00 0.00 0.00 96 1006.2
20260509062152 53 71 0.0 0.0 0.00 0.00 0.00 95 1006.2
20260509061649 53 40 0.0 0.0 0.00 0.00 0.00 95 1006.3
20260509061147 53 70 0.0 0.0 0.00 0.00 0.00 95 1006.3
20260509060644 53 54 0.0 0.0 0.00 0.00 0.00 94 1006.2
20260509060140 53 0 0.0 0.0 0.00 0.00 0.00 94 1006.4
20260509055636 53 62 0.0 0.0 0.00 0.00 0.00 94 1006.4
20260509055132 53 52 0.0 0.0 0.00 0.00 0.00 94 1006.6
20260509054629 53 81 0.0 0.0 0.00 0.00 0.00 93 1006.7
20260509054126 53 22 0.0 0.0 0.00 0.00 0.00 93 1006.5
20260509053624 53 89 0.0 0.0 0.00 0.00 0.00 93 1006.6
20260509053121 53 85 0.0 0.0 0.00 0.00 0.00 93 1006.6
20260509052619 53 85 0.0 0.0 0.00 0.00 0.00 92 1006.5
20260509052116 53 93 0.0 0.0 0.00 0.00 0.00 92 1006.8
20260509051614 53 59 0.0 0.0 0.00 0.00 0.00 92 1006.8
20260509051111 53 53 0.0 0.0 0.00 0.00 0.00 91 1007.0
20260509050608 54 46 0.0 0.0 0.00 0.00 0.00 91 1006.9
20260509050104 54 63 0.0 0.9 0.00 0.00 0.00 90 1006.9
20260509045602 54 55 0.0 0.0 0.00 0.00 0.00 89 1006.9
20260509045058 54 51 0.0 0.0 0.00 0.00 0.00 89 1006.8
20260509044556 54 50 0.0 0.0 0.00 0.00 0.00 88 1006.8
20260509044053 54 37 0.0 0.0 0.00 0.00 0.00 87 1006.8
20260509043550 54 24 0.0 0.0 0.00 0.00 0.00 87 1006.8
20260509043045 55 43 0.0 0.0 0.00 0.00 0.00 87 1007.0
20260509042541 55 23 0.0 0.0 0.00 0.00 0.00 87 1007.2
20260509042038 55 46 0.0 0.0 0.00 0.00 0.00 86 1007.0
20260509041535 55 31 0.0 0.0 0.00 0.00 0.00 86 1007.3
20260509041033 55 28 0.0 0.0 0.00 0.00 0.00 86 1007.3
20260509040531 55 36 0.0 0.0 0.00 0.00 0.00 86 1006.9
20260509040027 55 44 0.0 0.0 0.00 0.00 0.00 86 1007.2
20260509035524 55 55 0.0 0.0 0.00 0.00 0.00 85 1007.3
20260509035021 56 23 0.0 0.0 0.00 0.00 0.00 85 1007.2
20260509034519 56 64 0.0 0.0 0.00 0.00 0.00 84 1007.4
20260509034016 56 66 0.0 0.0 0.00 0.00 0.00 84 1007.3
20260509033512 56 45 0.0 0.0 0.00 0.00 0.00 84 1007.4
20260509033010 56 36 0.0 0.0 0.00 0.00 0.00 83 1007.6
20260509032507 56 15 0.0 0.0 0.00 0.00 0.00 83 1007.6
20260509032004 56 35 0.0 0.0 0.00 0.00 0.00 82 1007.6
20260509031501 57 15 0.0 0.0 0.00 0.00 0.00 82 1007.3
20260509030958 57 85 0.9 0.9 0.00 0.00 0.00 82 1007.6
20260509030456 57 26 0.9 0.9 0.00 0.00 0.00 82 1007.6
20260509025953 57 59 0.0 0.0 0.00 0.00 0.00 82 1007.6
20260509025449 57 45 0.0 0.9 0.00 0.00 0.00 81 1007.7
20260509024944 57 36 0.0 0.0 0.00 0.00 0.00 81 1007.8
20260509024441 57 43 0.0 0.0 0.00 0.00 0.00 82 1007.7
20260509023937 58 47 0.0 0.0 0.00 0.00 0.00 82 1007.8
20260509023435 58 64 0.0 0.9 0.00 0.00 0.00 82 1007.5
20260509022931 58 358 0.0 0.0 0.00 0.00 0.00 82 1007.8
20260509022428 58 7 0.0 0.0 0.00 0.00 0.00 83 1007.9
20260509021926 57 36 0.0 0.0 0.00 0.00 0.00 83 1007.7
20260509021423 57 0 0.0 0.0 0.00 0.00 0.00 84 1007.8
20260509020920 57 63 0.0 0.0 0.00 0.00 0.00 85 1007.7
20260509020418 56 46 0.0 0.0 0.00 0.00 0.00 87 1007.8
20260509015915 56 55 0.0 0.0 0.00 0.00 0.00 88 1007.5
20260509015414 56 55 0.0 0.0 0.00 0.00 0.00 88 1007.5
20260509014910 56 56 0.0 0.9 0.00 0.00 0.00 88 1007.8
20260509014407 57 50 0.0 0.0 0.00 0.00 0.00 86 1007.8
20260509013903 57 50 0.0 0.0 0.00 0.00 0.00 86 1007.6
20260509013400 57 50 0.0 0.0 0.00 0.00 0.00 85 1007.6
20260509012855 58 50 0.0 0.0 0.00 0.00 0.00 84 1007.6
20260509012352 58 50 0.0 0.0 0.00 0.00 0.00 83 1007.5
20260509011850 58 50 0.0 0.0 0.00 0.00 0.00 82 1007.4
20260509011347 59 50 0.0 0.0 0.00 0.00 0.00 80 1007.4
20260509010840 59 50 0.0 0.0 0.00 0.00 0.00 80 1007.4
20260509010337 59 50 0.0 0.0 0.00 0.00 0.00 80 1007.5
20260509005833 59 50 0.0 0.0 0.00 0.00 0.00 80 1007.2
20260509005331 59 50 0.0 0.0 0.00 0.00 0.00 79 1007.2
20260509004831 59 50 0.0 0.0 0.00 0.00 0.00 79 1007.3
20260509004328 59 41 0.0 0.0 0.00 0.00 0.00 79 1007.3
20260509003826 59 41 0.0 0.0 0.00 0.00 0.00 78 1007.3
20260509003323 59 41 0.0 0.0 0.00 0.00 0.00 78 1007.0
20260509002820 59 41 0.0 0.0 0.00 0.00 0.00 78 1007.0
20260509002318 59 43 0.0 0.0 0.00 0.00 0.00 79 1007.0
20260509001816 60 41 0.0 0.0 0.00 0.00 0.00 79 1006.9
20260509001311 60 39 0.0 0.0 0.00 0.00 0.00 79 1007.2
20260509000809 60 39 0.0 0.0 0.00 0.00 0.00 78 1006.7
20260509000307 60 39 0.0 0.0 0.00 0.00 0.00 77 1007.0
20260508235803 61 41 0.0 0.0 0.00 0.00 0.00 76 1007.0
20260508235300 61 43 0.0 0.0 0.00 0.00 0.00 76 1007.0
20260508234757 61 43 0.0 0.0 0.00 0.00 0.00 76 1007.3
20260508234253 62 40 0.0 0.0 0.00 0.00 0.00 75 1007.0
20260508233752 62 39 0.0 0.0 0.00 0.00 0.00 73 1007.4
20260508233251 62 138 0.0 0.9 0.00 0.00 0.00 72 1007.3
20260508232747 62 138 0.0 0.0 0.00 0.00 0.00 72 1007.3
20260508232244 62 135 0.0 0.0 0.00 0.00 0.00 73 1007.3
20260508231742 62 92 0.0 0.0 0.00 0.00 0.00 73 1007.2
20260508231238 62 350 0.0 0.0 0.00 0.00 0.00 73 1007.3
20260508230735 62 19 0.9 0.9 0.00 0.00 0.00 72 1007.4
20260508230231 62 89 0.0 0.9 0.00 0.00 0.00 72 1007.0
20260508225729 62 153 0.9 0.9 0.00 0.00 0.00 72 1007.6
20260508225226 62 148 0.0 0.0 0.00 0.00 0.00 72 1007.5
20260508224724 62 135 0.0 0.0 0.00 0.00 0.00 71 1007.3
20260508224221 63 155 0.9 0.9 0.00 0.00 0.00 70 1007.5
20260508223718 62 10 0.0 0.0 0.00 0.00 0.00 70 1007.4
20260508223215 62 65 0.0 0.0 0.00 0.00 0.00 71 1007.7
20260508222713 62 51 0.0 0.0 0.00 0.00 0.00 69 1007.6
20260508222210 62 17 0.0 0.0 0.00 0.00 0.00 70 1007.5
20260508221706 63 33 0.0 0.0 0.00 0.00 0.00 69 1007.5
20260508221202 62 359 0.0 0.0 0.00 0.00 0.00 70 1007.5
20260508220658 62 103 0.9 1.7 0.00 0.00 0.00 70 1007.2
20260508220155 63 357 0.0 0.9 0.00 0.00 0.00 69 1007.5
20260508215652 63 138 1.7 1.7 0.00 0.00 0.00 67 1007.2
20260508215148 63 356 0.9 0.9 0.00 0.00 0.00 67 1007.4
20260508214645 62 357 0.0 0.9 0.00 0.00 0.00 68 1007.3
20260508214143 62 356 0.0 0.0 0.00 0.00 0.00 69 1007.5
20260508213639 63 337 0.9 0.9 0.00 0.00 0.00 71 1007.6
20260508213135 63 170 0.9 0.9 0.00 0.00 0.00 68 1007.5
20260508212632 63 358 0.9 1.7 0.00 0.00 0.00 68 1007.5
20260508212129 62 11 0.0 0.9 0.00 0.00 0.00 69 1007.7
20260508211624 62 354 0.0 0.0 0.00 0.00 0.00 71 1007.8
20260508211120 61 104 0.0 0.0 0.00 0.00 0.00 71 1007.8
20260508210617 61 72 0.0 0.0 0.00 0.00 0.00 71 1007.9
20260508210115 61 350 2.6 2.6 0.00 0.00 0.00 69 1007.9
20260508205612 61 144 0.0 0.0 0.00 0.00 0.00 70 1007.9
20260508205108 61 331 0.9 0.9 0.00 0.00 0.00 69 1008.0
20260508204604 62 73 0.0 0.9 0.00 0.00 0.00 67 1008.1
20260508204101 62 40 0.0 0.0 0.00 0.00 0.00 67 1008.1
20260508203557 62 174 0.9 1.7 0.00 0.00 0.00 66 1008.2
20260508203053 62 127 1.7 1.7 0.00 0.00 0.00 66 1008.2
20260508202549 62 160 2.6 2.6 0.00 0.00 0.00 66 1008.3
20260508202047 62 91 0.9 0.9 0.00 0.00 0.00 68 1008.4
20260508201543 62 173 2.6 2.6 0.00 0.00 0.00 67 1008.1
20260508201040 62 40 0.0 0.0 0.00 0.00 0.00 65 1008.5
20260508200537 63 352 0.9 1.7 0.00 0.00 0.00 63 1008.3
20260508200033 63 159 1.7 1.7 0.00 0.00 0.00 65 1008.5
20260508195530 63 307 2.6 4.3 0.00 0.00 0.00 65 1008.4
20260508195026 64 149 4.3 6.1 0.00 0.00 0.00 61 1008.8
20260508194523 64 17 0.0 0.0 0.00 0.00 0.00 63 1008.7
20260508194020 62 322 1.7 1.7 0.00 0.00 0.00 65 1008.7
20260508193516 63 77 1.7 2.6 0.00 0.00 0.00 63 1008.6
20260508193013 62 35 0.0 0.9 0.00 0.00 0.00 64 1009.0
20260508192510 62 8 0.0 0.9 0.00 0.00 0.00 65 1009.1
20260508192007 62 129 0.9 1.7 0.00 0.00 0.00 68 1009.1
20260508191504 61 114 0.9 0.9 0.00 0.00 0.00 69 1009.1
20260508191000 61 30 0.0 0.0 0.00 0.00 0.00 69 1009.4
20260508190458 61 336 1.7 1.7 0.00 0.00 0.00 69 1009.4
20260508185954 61 87 0.9 0.9 0.00 0.00 0.00 71 1009.4
20260508185451 61 162 1.7 1.7 0.00 0.00 0.00 70 1009.6
20260508184949 61 216 0.9 1.7 0.00 0.00 0.00 70 1009.5
20260508184446 61 146 0.0 1.7 0.00 0.00 0.00 70 1009.7
20260508183943 61 265 1.7 1.7 0.00 0.00 0.00 70 1009.8
20260508183439 62 19 0.0 0.0 0.00 0.00 0.00 70 1009.7
20260508182934 63 23 0.9 0.9 0.00 0.00 0.00 67 1009.7
20260508182432 62 44 0.0 0.9 0.00 0.00 0.00 69 1009.6
20260508181932 62 332 2.6 2.6 0.00 0.00 0.00 70 1009.9
20260508181429 62 313 0.9 1.7 0.00 0.00 0.00 69 1009.8
20260508180927 61 357 0.0 0.9 0.00 0.00 0.00 69 1009.9
20260508180423 61 235 0.9 0.9 0.00 0.00 0.00 69 1010.0
20260508175919 61 341 1.7 1.7 0.00 0.00 0.00 69 1010.0
20260508175416 62 316 2.6 2.6 0.00 0.00 0.00 68 1010.1
20260508174914 62 91 0.9 0.9 0.00 0.00 0.00 69 1009.8
20260508174411 61 35 0.0 0.9 0.00 0.00 0.00 72 1010.1
20260508173907 60 81 0.0 0.9 0.00 0.00 0.00 71 1010.2
20260508173405 60 359 0.0 0.9 0.00 0.00 0.00 71 1010.4
20260508172900 61 218 0.9 1.7 0.00 0.00 0.00 69 1010.5
20260508172358 61 11 0.0 0.9 0.00 0.00 0.00 67 1010.4
20260508171854 62 171 0.9 0.9 0.00 0.00 0.00 64 1010.5
20260508171350 61 337 0.0 0.0 0.00 0.00 0.00 63 1010.6
20260508170847 61 19 0.0 0.0 0.00 0.00 0.00 66 1010.8
20260508170345 61 315 1.7 1.7 0.00 0.00 0.00 63 1010.7
20260508165841 60 355 0.0 0.9 0.00 0.00 0.00 63 1010.7
20260508165339 59 310 2.6 2.6 0.00 0.00 0.00 65 1010.8
20260508164835 59 357 0.0 0.0 0.00 0.00 0.00 67 1010.7
20260508164332 59 311 2.6 2.6 0.00 0.00 0.00 64 1011.0
20260508163830 59 337 0.0 0.9 0.00 0.00 0.00 67 1011.0
20260508163328 59 344 1.7 1.7 0.00 0.00 0.00 65 1011.1
20260508162823 60 153 0.0 0.9 0.00 0.00 0.00 66 1011.0
20260508162320 59 103 1.7 1.7 0.00 0.00 0.00 67 1011.0
20260508161817 58 41 0.0 0.0 0.00 0.00 0.00 71 1011.3
20260508161314 58 330 0.0 0.0 0.00 0.00 0.00 71 1011.5
20260508160812 59 10 0.0 0.0 0.00 0.00 0.00 67 1011.6
20260508160310 58 89 0.0 0.0 0.00 0.00 0.00 72 1011.6
20260508155806 58 348 1.7 1.7 0.00 0.00 0.00 73 1011.6
20260508155306 58 335 1.7 1.7 0.00 0.00 0.00 73 1011.5
20260508154800 58 9 0.9 0.9 0.00 0.00 0.00 76 1011.7
20260508154258 57 122 0.9 0.9 0.00 0.00 0.00 73 1011.7
20260508153754 57 27 0.0 0.9 0.00 0.00 0.00 76 1011.5
20260508153252 57 344 0.9 0.9 0.00 0.00 0.00 77 1011.8
20260508152748 56 356 0.0 0.9 0.00 0.00 0.00 77 1011.5
20260508152244 56 358 1.7 2.6 0.00 0.00 0.00 81 1011.5
20260508151740 55 354 1.7 1.7 0.00 0.00 0.00 81 1011.4
20260508151237 55 317 2.6 4.3 0.00 0.00 0.00 81 1011.5
20260508150734 55 318 2.6 2.6 0.00 0.00 0.00 83 1011.6
20260508150231 55 327 0.9 0.9 0.00 0.00 0.00 84 1011.4
20260508145726 55 17 1.7 2.6 0.00 0.00 0.00 85 1011.7
20260508145223 54 48 0.9 0.9 0.00 0.00 0.00 84 1011.7
20260508144720 54 347 0.9 1.7 0.00 0.00 0.00 86 1011.7
20260508144218 53 352 0.0 0.9 0.00 0.00 0.00 87 1011.4
20260508143715 53 31 0.0 0.9 0.00 0.00 0.00 87 1011.4
20260508143212 53 78 0.9 0.9 0.00 0.00 0.00 88 1011.5
20260508142708 52 38 0.0 0.0 0.00 0.00 0.00 88 1011.7
20260508142205 52 19 0.0 0.0 0.00 0.00 0.00 89 1011.4
20260508141702 52 200 1.7 1.7 0.00 0.00 0.00 89 1011.6
20260508141159 51 16 0.0 0.0 0.00 0.00 0.00 90 1012.1
20260508140657 51 332 1.7 1.7 0.00 0.00 0.00 89 1011.9
20260508140153 52 47 0.0 0.0 0.00 0.00 0.00 90 1011.8
20260508135649 51 28 0.0 0.0 0.00 0.00 0.00 90 1012.1
20260508135145 51 351 0.0 0.0 0.00 0.00 0.00 91 1012.0
20260508134641 51 41 0.0 0.9 0.00 0.00 0.00 91 1012.1
20260508134139 50 152 1.7 1.7 0.00 0.00 0.00 91 1012.0
20260508133636 50 28 0.0 0.0 0.00 0.00 0.00 93 1012.4
20260508133133 50 10 0.0 0.0 0.00 0.00 0.00 93 1012.1
20260508132630 50 95 0.0 0.0 0.00 0.00 0.00 93 1012.4
20260508132127 50 86 0.0 0.0 0.00 0.00 0.00 93 1012.1
20260508131623 50 34 0.0 0.0 0.00 0.00 0.00 94 1012.0
20260508131120 50 20 0.0 0.0 0.00 0.00 0.00 94 1012.1
20260508130616 49 2 0.0 0.0 0.00 0.00 0.00 94 1012.1
20260508130113 49 2 0.0 0.0 0.00 0.00 0.00 94 1011.9
20260508125608 49 320 0.0 0.0 0.00 0.00 0.00 95 1011.8
20260508125106 48 1 0.0 0.0 0.00 0.00 0.00 95 1012.0
20260508124604 48 4 0.0 0.0 0.00 0.00 0.00 96 1012.0
20260508124101 48 22 0.0 0.0 0.00 0.00 0.00 97 1012.1
20260508123559 48 54 0.0 0.0 0.00 0.00 0.00 97 1012.0
20260508123056 48 55 0.0 0.0 0.00 0.00 0.00 97 1011.8
20260508122552 48 52 0.0 0.0 0.00 0.00 0.00 97 1011.9
20260508122049 48 52 0.0 0.0 0.00 0.00 0.00 98 1012.0
20260508121548 47 52 0.0 0.0 0.00 0.00 0.00 98 1012.1
20260508121045 47 51 0.0 0.0 0.00 0.00 0.00 98 1011.8
20260508120542 47 39 0.0 0.0 0.00 0.00 0.00 98 1011.8
20260508120041 47 33 0.0 0.0 0.00 0.00 0.00 99 1011.9
20260508115538 46 22 0.0 0.0 0.00 0.00 0.00 98 1011.6
20260508115034 46 22 0.0 0.0 0.00 0.00 0.00 98 1011.7
20260508114531 46 23 0.0 0.0 0.00 0.00 0.00 99 1011.7
20260508114028 46 17 0.0 0.0 0.00 0.00 0.00 99 1011.6
20260508113525 46 27 0.0 0.0 0.00 0.00 0.00 99 1011.6
20260508113023 45 28 0.0 0.0 0.00 0.00 0.00 99 1011.4
20260508112519 45 11 0.0 0.0 0.00 0.00 0.00 98 1011.5
20260508112016 45 50 0.0 0.0 0.00 0.00 0.00 98 1011.5
20260508111513 45 16 0.0 0.0 0.00 0.00 0.00 98 1011.6
20260508111010 45 13 0.0 0.0 0.00 0.00 0.00 98 1011.7
20260508110508 45 20 0.0 0.0 0.00 0.00 0.00 98 1011.7
20260508110003 45 21 0.0 0.0 0.00 0.00 0.00 99 1011.5
20260508105458 45 38 0.0 0.0 0.00 0.00 0.00 99 1011.4
20260508104956 45 44 0.0 0.0 0.00 0.00 0.00 99 1011.0
20260508104453 45 43 0.0 0.0 0.00 0.00 0.00 99 1011.3
20260508103950 44 50 0.0 0.0 0.00 0.00 0.00 98 1011.5
20260508103447 44 39 0.0 0.0 0.00 0.00 0.00 98 1011.4
20260508102943 44 19 0.0 0.0 0.00 0.00 0.00 98 1011.5
20260508102442 45 15 0.0 0.0 0.00 0.00 0.00 98 1011.5
20260508101939 45 11 0.0 0.0 0.00 0.00 0.00 98 1011.3
20260508101436 45 2 0.0 0.0 0.00 0.00 0.00 98 1011.3
20260508100933 44 17 0.0 0.0 0.00 0.00 0.00 98 1011.5
20260508100432 44 6 0.0 0.0 0.00 0.00 0.00 98 1011.5
20260508095928 44 8 0.0 0.0 0.00 0.00 0.00 98 1011.4
20260508095426 44 20 0.0 0.0 0.00 0.00 0.00 98 1011.4
20260508094922 45 21 0.0 0.0 0.00 0.00 0.00 98 1011.1
20260508094419 45 35 0.0 0.0 0.00 0.00 0.00 98 1011.5
20260508093916 45 154 0.0 0.9 0.00 0.00 0.00 98 1011.4
20260508093414 45 40 0.0 0.0 0.00 0.00 0.00 98 1011.6
20260508092911 45 22 0.0 0.0 0.00 0.00 0.00 98 1011.6
20260508092409 45 41 0.0 0.0 0.00 0.00 0.00 98 1011.5
20260508091907 45 1 0.0 0.0 0.00 0.00 0.00 98 1011.4
20260508091403 44 26 0.0 0.0 0.00 0.00 0.00 98 1011.5
20260508090901 44 21 0.0 0.0 0.00 0.00 0.00 98 1011.5
20260508090359 44 29 0.0 0.0 0.00 0.00 0.00 98 1011.5
20260508085855 44 11 0.0 0.0 0.00 0.00 0.00 98 1011.4
20260508085351 44 354 0.0 0.0 0.00 0.00 0.00 98 1011.4
20260508084848 44 12 0.0 0.0 0.00 0.00 0.00 98 1011.5
20260508084345 44 356 0.0 0.0 0.00 0.00 0.00 98 1011.4
20260508083843 44 14 0.0 0.0 0.00 0.00 0.00 98 1011.5
20260508083340 44 53 0.0 0.0 0.00 0.00 0.00 99 1011.5
20260508082839 44 6 0.0 0.0 0.00 0.00 0.00 99 1011.5
20260508082337 44 35 0.0 0.0 0.00 0.00 0.00 99 1011.5
20260508081835 44 24 0.0 0.0 0.00 0.00 0.00 99 1011.4
20260508081331 44 32 0.0 0.0 0.00 0.00 0.00 99 1011.6
20260508080828 44 30 0.0 0.0 0.00 0.00 0.00 99 1011.5